THY6TR LOWW-LTFM

Flight info

Callsign THY6TR
Flight time 1h 38m
Altitude 37000
Route ADAMA Z648 VEDER L140 ALAMU DCT EPARI DCT TEGRI DCT SODGO DCT NULGO DCT TIMUR DCT XANEX L606 GASRU DCT RILEX
Aircraft B77W/H-SDE1E2E3FGHIJ2J3J4J5M1RWXY/LB1D1

Departure

Time 2026-05-05 18:47
Airport Vienna International Airport (LOWW)

Arrival

Time 2026-05-05 20:25
Airport İstanbul Airport (LTFM)
Time Latitude Longitude Altitude Speed Heading
2026-05-05 18:06 48.11756 16.56115 615 ft 0 kts 26°
2026-05-05 18:35 48.11752 16.56112 615 ft 3 kts 28°
2026-05-05 18:35 48.11730 16.56090 629 ft 4 kts 46°
2026-05-05 18:35 48.11715 16.56058 629 ft 4 kts 69°
2026-05-05 18:35 48.11711 16.56021 629 ft 4 kts 107°
2026-05-05 18:36 48.11713 16.56011 629 ft 2 kts 116°
2026-05-05 18:38 48.11711 16.56016 629 ft 2 kts 116°
2026-05-05 18:38 48.11695 16.56065 629 ft 6 kts 116°
2026-05-05 18:39 48.11677 16.56122 622 ft 6 kts 116°
2026-05-05 18:39 48.11656 16.56185 627 ft 8 kts 116°
2026-05-05 18:39 48.11625 16.56279 629 ft 12 kts 116°
2026-05-05 18:39 48.11587 16.56394 626 ft 12 kts 116°
2026-05-05 18:40 48.11549 16.56511 625 ft 12 kts 116°
2026-05-05 18:40 48.11512 16.56627 626 ft 13 kts 116°
2026-05-05 18:40 48.11471 16.56750 628 ft 13 kts 115°
2026-05-05 18:40 48.11431 16.56876 627 ft 14 kts 116°
2026-05-05 18:41 48.11386 16.57013 629 ft 15 kts 117°
2026-05-05 18:41 48.11341 16.57153 629 ft 14 kts 115°
2026-05-05 18:41 48.11302 16.57277 624 ft 10 kts 106°
2026-05-05 18:41 48.11330 16.57346 617 ft 8 kts 23°
2026-05-05 18:42 48.11383 16.57383 624 ft 10 kts 25°
2026-05-05 18:42 48.11453 16.57433 620 ft 12 kts 26°
2026-05-05 18:42 48.11532 16.57458 617 ft 12 kts 349°
2026-05-05 18:42 48.11624 16.57423 625 ft 14 kts 345°
2026-05-05 18:43 48.11719 16.57384 627 ft 14 kts 344°
2026-05-05 18:43 48.11813 16.57343 617 ft 14 kts 344°
2026-05-05 18:43 48.11908 16.57303 627 ft 14 kts 345°
2026-05-05 18:43 48.11980 16.57304 629 ft 11 kts 47°
2026-05-05 18:44 48.12005 16.57411 627 ft 11 kts 72°
2026-05-05 18:44 48.12005 16.57528 625 ft 11 kts 101°
2026-05-05 18:44 48.12002 16.57553 623 ft 0 kts 102°
2026-05-05 18:45 48.11999 16.57570 622 ft 6 kts 102°
2026-05-05 18:45 48.11983 16.57668 616 ft 10 kts 104°
2026-05-05 18:46 48.11960 16.57771 629 ft 10 kts 115°
2026-05-05 18:46 48.11910 16.57842 626 ft 9 kts 159°
2026-05-05 18:46 48.11842 16.57874 624 ft 16 kts 163°
2026-05-05 18:46 48.11593 16.57981 625 ft 72 kts 164°
2026-05-05 18:47 48.10864 16.58292 622 ft 144 kts 164°
2026-05-05 18:47 48.09776 16.58750 991 ft 165 kts 165°
2026-05-05 18:47 48.08712 16.59213 1976 ft 157 kts 166°
2026-05-05 18:47 48.07746 16.60147 2573 ft 184 kts 139°
2026-05-05 18:48 48.07183 16.62136 2778 ft 237 kts 106°
2026-05-05 18:48 48.07178 16.64782 3251 ft 264 kts 94°
2026-05-05 18:48 48.07215 16.67552 4070 ft 267 kts 95°
2026-05-05 18:48 48.07207 16.70357 4727 ft 274 kts 95°
2026-05-05 18:49 48.07175 16.73260 5097 ft 282 kts 95°
2026-05-05 18:49 48.07133 16.76209 5951 ft 282 kts 97°
2026-05-05 18:49 48.06884 16.79109 6818 ft 282 kts 105°
2026-05-05 18:49 48.06477 16.81988 7685 ft 285 kts 107°
2026-05-05 18:50 48.06034 16.84888 8593 ft 287 kts 107°
2026-05-05 18:50 48.05586 16.87826 9480 ft 292 kts 108°
2026-05-05 18:50 48.05136 16.90817 10231 ft 300 kts 107°
2026-05-05 18:50 48.04663 16.93971 10574 ft 325 kts 107°
2026-05-05 18:51 48.04152 16.97406 10820 ft 354 kts 105°
2026-05-05 18:51 48.03605 17.01136 11163 ft 378 kts 106°
2026-05-05 18:51 48.03041 17.05026 11981 ft 388 kts 105°
2026-05-05 18:51 48.02469 17.08990 13047 ft 392 kts 104°
2026-05-05 18:52 48.01889 17.13001 14079 ft 398 kts 104°
2026-05-05 18:52 48.01297 17.17072 15008 ft 404 kts 105°
2026-05-05 18:52 48.00695 17.21196 15996 ft 409 kts 105°
2026-05-05 18:52 48.00086 17.25360 16944 ft 414 kts 104°
2026-05-05 18:53 47.99461 17.29606 17802 ft 423 kts 104°
2026-05-05 18:53 47.98819 17.33869 18620 ft 428 kts 106°
2026-05-05 18:53 47.97977 17.38135 19438 ft 431 kts 110°
2026-05-05 18:53 47.97029 17.42421 20211 ft 437 kts 111°
2026-05-05 18:54 47.96057 17.46751 20980 ft 443 kts 110°
2026-05-05 18:54 47.95076 17.51123 21789 ft 447 kts 110°
2026-05-05 18:54 47.94083 17.55567 22506 ft 454 kts 111°
2026-05-05 18:54 47.93083 17.60066 23225 ft 460 kts 111°
2026-05-05 18:55 47.92075 17.64612 23898 ft 464 kts 110°
2026-05-05 18:55 47.91057 17.69202 24519 ft 469 kts 110°
2026-05-05 18:55 47.90027 17.73839 25131 ft 473 kts 110°
2026-05-05 18:55 47.88986 17.78514 25791 ft 476 kts 110°
2026-05-05 18:56 47.87940 17.83204 26391 ft 480 kts 110°
2026-05-05 18:56 47.86879 17.87952 26952 ft 485 kts 110°
2026-05-05 18:56 47.85805 17.92741 27516 ft 489 kts 110°
2026-05-05 18:56 47.84714 17.97542 28066 ft 492 kts 111°
2026-05-05 18:57 47.83404 18.02263 28555 ft 494 kts 116°
2026-05-05 18:57 47.81948 18.06839 29023 ft 498 kts 117°
2026-05-05 18:57 47.80451 18.11504 29484 ft 501 kts 117°
2026-05-05 18:57 47.78958 18.16210 29940 ft 504 kts 116°
2026-05-05 18:58 47.77477 18.20935 30421 ft 504 kts 116°
2026-05-05 18:58 47.76007 18.25645 30993 ft 501 kts 116°
2026-05-05 18:58 47.74709 18.30451 31590 ft 500 kts 110°
2026-05-05 18:58 47.73736 18.35403 32129 ft 499 kts 105°
2026-05-05 18:59 47.73037 18.40451 32627 ft 499 kts 98°
2026-05-05 18:59 47.72630 18.45564 33104 ft 499 kts 96°
2026-05-05 18:59 47.72270 18.50683 33627 ft 497 kts 96°
2026-05-05 18:59 47.71911 18.55775 34122 ft 495 kts 96°
2026-05-05 19:00 47.71539 18.60850 34538 ft 494 kts 97°
2026-05-05 19:00 47.71153 18.65913 34905 ft 494 kts 97°
2026-05-05 19:00 47.70345 18.76127 34919 ft 498 kts 97°
2026-05-05 19:01 47.69534 18.86266 34916 ft 492 kts 97°
2026-05-05 19:01 47.68126 18.96099 34918 ft 487 kts 114°
2026-05-05 19:02 47.64499 19.04517 34914 ft 484 kts 134°
2026-05-05 19:02 47.59781 19.11666 34918 ft 487 kts 136°
2026-05-05 19:03 47.55024 19.18856 34912 ft 490 kts 135°
2026-05-05 19:03 47.50340 19.26025 34912 ft 493 kts 135°
2026-05-05 19:04 47.45557 19.33382 34919 ft 494 kts 135°
2026-05-05 19:04 47.40822 19.40655 34905 ft 494 kts 135°
2026-05-05 19:05 47.36061 19.47943 34907 ft 493 kts 135°
2026-05-05 19:05 47.31299 19.55209 34918 ft 492 kts 135°
2026-05-05 19:06 47.26529 19.62464 34917 ft 492 kts 135°
2026-05-05 19:06 47.21765 19.69691 34923 ft 492 kts 135°
2026-05-05 19:07 47.16999 19.76902 34921 ft 492 kts 135°
2026-05-05 19:07 47.12225 19.84105 34919 ft 492 kts 135°
2026-05-05 19:08 47.07444 19.91300 34915 ft 492 kts 135°
2026-05-05 19:08 47.02653 19.98488 34915 ft 493 kts 135°
2026-05-05 19:09 46.97860 20.05661 34913 ft 493 kts 135°
2026-05-05 19:09 46.93053 20.12835 34918 ft 493 kts 135°
2026-05-05 19:10 46.88249 20.19985 34921 ft 493 kts 135°
2026-05-05 19:10 46.83439 20.27124 34923 ft 493 kts 135°
2026-05-05 19:11 46.78654 20.34208 34919 ft 493 kts 135°
2026-05-05 19:11 46.73832 20.41326 34926 ft 494 kts 135°
2026-05-05 19:12 46.68993 20.48452 34924 ft 494 kts 135°
2026-05-05 19:12 46.64154 20.55557 34924 ft 494 kts 135°
2026-05-05 19:13 46.59310 20.62651 34924 ft 494 kts 135°
2026-05-05 19:13 46.54458 20.69737 34926 ft 494 kts 135°
2026-05-05 19:14 46.49607 20.76804 34918 ft 494 kts 136°
2026-05-05 19:14 46.44755 20.83853 34929 ft 494 kts 136°
2026-05-05 19:15 46.39893 20.90897 34931 ft 494 kts 136°
2026-05-05 19:15 46.35031 20.97924 34935 ft 494 kts 136°
2026-05-05 19:16 46.30193 21.04899 34937 ft 494 kts 136°
2026-05-05 19:16 46.25296 21.11860 34937 ft 493 kts 138°
2026-05-05 19:17 46.20194 21.18483 34932 ft 493 kts 139°
2026-05-05 19:17 46.15047 21.25030 34942 ft 493 kts 139°
2026-05-05 19:18 46.09907 21.31586 34938 ft 494 kts 139°
2026-05-05 19:18 46.04765 21.38161 34939 ft 494 kts 139°
2026-05-05 19:19 45.99626 21.44725 34941 ft 494 kts 139°
2026-05-05 19:19 45.94480 21.51282 34936 ft 494 kts 139°
2026-05-05 19:20 45.89330 21.57824 34943 ft 494 kts 139°
2026-05-05 19:20 45.84173 21.64359 34950 ft 494 kts 139°
2026-05-05 19:21 45.79011 21.70881 34951 ft 494 kts 139°
2026-05-05 19:21 45.73850 21.77387 34953 ft 494 kts 139°
2026-05-05 19:22 45.68720 21.83835 34963 ft 494 kts 139°
2026-05-05 19:22 45.63553 21.90316 34952 ft 494 kts 139°
2026-05-05 19:23 45.58379 21.96787 34974 ft 495 kts 139°
2026-05-05 19:23 45.53197 22.03253 34985 ft 495 kts 139°
2026-05-05 19:24 45.48001 22.09719 34985 ft 496 kts 139°
2026-05-05 19:24 45.43677 22.15087 34993 ft 496 kts 139°
2026-05-05 19:25 45.38441 22.21574 34987 ft 496 kts 139°
2026-05-05 19:25 45.33230 22.28012 35008 ft 496 kts 139°
2026-05-05 19:26 45.28045 22.34402 35014 ft 497 kts 139°
2026-05-05 19:26 45.22817 22.40829 35011 ft 497 kts 139°
2026-05-05 19:27 45.17587 22.47243 35018 ft 497 kts 139°
2026-05-05 19:27 45.12346 22.53653 35029 ft 498 kts 139°
2026-05-05 19:28 45.07098 22.60057 35015 ft 498 kts 139°
2026-05-05 19:28 45.01843 22.66453 35024 ft 499 kts 139°
2026-05-05 19:29 44.96573 22.72851 35005 ft 499 kts 139°
2026-05-05 19:29 44.91301 22.79238 35006 ft 500 kts 139°
2026-05-05 19:30 44.86007 22.85589 34999 ft 500 kts 141°
2026-05-05 19:30 44.80486 22.91576 34992 ft 500 kts 143°
2026-05-05 19:31 44.74925 22.97468 34995 ft 500 kts 143°
2026-05-05 19:31 44.69370 23.03371 34990 ft 501 kts 143°
2026-05-05 19:32 44.63852 23.09253 34991 ft 501 kts 143°
2026-05-05 19:32 44.58299 23.15168 34994 ft 501 kts 143°
2026-05-05 19:33 44.52738 23.21075 34989 ft 501 kts 143°
2026-05-05 19:33 44.47171 23.26971 34993 ft 502 kts 143°
2026-05-05 19:34 44.41593 23.32865 34991 ft 503 kts 143°
2026-05-05 19:35 44.33214 23.41690 35000 ft 503 kts 143°
2026-05-05 19:35 44.27616 23.47569 34994 ft 504 kts 142°
2026-05-05 19:36 44.22007 23.53446 34988 ft 505 kts 142°
2026-05-05 19:36 44.16387 23.59320 34985 ft 505 kts 143°
2026-05-05 19:37 44.10756 23.65192 34987 ft 506 kts 142°
2026-05-05 19:37 44.05147 23.71112 34983 ft 506 kts 139°
2026-05-05 19:38 44.00133 23.77951 34989 ft 505 kts 131°
2026-05-05 19:38 43.95391 23.85080 34986 ft 506 kts 131°
2026-05-05 19:39 43.90576 23.92227 34992 ft 507 kts 132°
2026-05-05 19:39 43.85729 23.99342 34989 ft 508 kts 132°
2026-05-05 19:40 43.80859 24.06464 34986 ft 509 kts 132°
2026-05-05 19:40 43.75988 24.13576 35000 ft 509 kts 132°
2026-05-05 19:41 43.71110 24.20684 34977 ft 509 kts 132°
2026-05-05 19:41 43.66179 24.27723 34993 ft 510 kts 134°
2026-05-05 19:42 43.61053 24.34500 34985 ft 510 kts 135°
2026-05-05 19:42 43.55898 24.41236 34991 ft 511 kts 135°
2026-05-05 19:43 43.50764 24.48008 34993 ft 510 kts 135°
2026-05-05 19:43 43.45652 24.54777 34993 ft 510 kts 135°
2026-05-05 19:44 43.40532 24.61542 35014 ft 510 kts 134°
2026-05-05 19:44 43.35437 24.68252 34998 ft 511 kts 135°
2026-05-05 19:45 43.30301 24.74999 35004 ft 511 kts 135°
2026-05-05 19:45 43.25160 24.81735 35001 ft 510 kts 135°
2026-05-05 19:46 43.20025 24.88448 35018 ft 510 kts 135°
2026-05-05 19:46 43.14879 24.95161 34997 ft 510 kts 135°
2026-05-05 19:47 43.09738 25.01850 35018 ft 510 kts 135°
2026-05-05 19:47 43.04592 25.08536 35022 ft 510 kts 135°
2026-05-05 19:48 42.99482 25.15165 35026 ft 510 kts 135°
2026-05-05 19:48 42.94338 25.21823 35013 ft 510 kts 135°
2026-05-05 19:49 42.89187 25.28473 35015 ft 509 kts 135°
2026-05-05 19:49 42.84030 25.35115 35021 ft 510 kts 135°
2026-05-05 19:50 42.78863 25.41753 35022 ft 511 kts 135°
2026-05-05 19:50 42.73676 25.48400 35018 ft 512 kts 135°
2026-05-05 19:51 42.68483 25.55039 35025 ft 513 kts 135°
2026-05-05 19:51 42.63283 25.61672 35017 ft 512 kts 135°
2026-05-05 19:52 42.58084 25.68287 35012 ft 511 kts 135°
2026-05-05 19:52 42.52894 25.74876 35038 ft 512 kts 135°
2026-05-05 19:53 42.47697 25.81458 35022 ft 511 kts 135°
2026-05-05 19:53 42.42508 25.88013 34960 ft 507 kts 135°
2026-05-05 19:53 42.39942 25.91248 34733 ft 504 kts 135°
2026-05-05 19:54 42.37379 25.94478 34426 ft 505 kts 135°
2026-05-05 19:54 42.34800 25.97725 34172 ft 505 kts 135°
2026-05-05 19:54 42.32241 26.00944 33943 ft 503 kts 135°
2026-05-05 19:54 42.29664 26.04179 33509 ft 506 kts 135°
2026-05-05 19:55 42.27185 26.07472 33049 ft 507 kts 130°
2026-05-05 19:55 42.24899 26.11168 32639 ft 507 kts 124°
2026-05-05 19:55 42.22897 26.15002 32248 ft 505 kts 119°
2026-05-05 19:55 42.21145 26.19106 31859 ft 505 kts 116°
2026-05-05 19:56 42.19455 26.23245 31570 ft 503 kts 116°
2026-05-05 19:56 42.17804 26.27292 31253 ft 499 kts 116°
2026-05-05 19:56 42.16123 26.31383 31026 ft 500 kts 116°
2026-05-05 19:57 42.12714 26.39582 31027 ft 504 kts 116°
2026-05-05 19:57 42.09254 26.47821 31038 ft 504 kts 116°
2026-05-05 19:58 42.05805 26.56007 31023 ft 501 kts 116°
2026-05-05 19:58 42.02370 26.64147 31029 ft 499 kts 116°
2026-05-05 19:59 41.98924 26.72249 31036 ft 499 kts 118°
2026-05-05 19:59 41.95018 26.79987 31044 ft 499 kts 123°
2026-05-05 20:00 41.90950 26.87537 30976 ft 497 kts 123°
2026-05-05 20:00 41.88959 26.91243 30611 ft 480 kts 123°
2026-05-05 20:00 41.87017 26.94887 29837 ft 480 kts 123°
2026-05-05 20:00 41.85080 26.98550 28918 ft 482 kts 122°
2026-05-05 20:01 41.83151 27.02211 28211 ft 478 kts 123°
2026-05-05 20:01 41.81262 27.05796 27436 ft 476 kts 123°
2026-05-05 20:01 41.79356 27.09409 26654 ft 474 kts 123°
2026-05-05 20:01 41.77456 27.13006 25952 ft 471 kts 123°
2026-05-05 20:02 41.75570 27.16569 25330 ft 467 kts 122°
2026-05-05 20:02 41.73695 27.20106 24726 ft 463 kts 122°
2026-05-05 20:02 41.71836 27.23608 24113 ft 460 kts 122°
2026-05-05 20:02 41.69989 27.27087 23551 ft 455 kts 122°
2026-05-05 20:03 41.68164 27.30517 22933 ft 451 kts 122°
2026-05-05 20:03 41.66353 27.33917 22291 ft 446 kts 122°
2026-05-05 20:03 41.64560 27.37281 21657 ft 443 kts 122°
2026-05-05 20:03 41.62779 27.40619 21060 ft 439 kts 122°
2026-05-05 20:04 41.61014 27.43922 20474 ft 435 kts 122°
2026-05-05 20:04 41.59259 27.47205 19890 ft 432 kts 122°
2026-05-05 20:04 41.57521 27.50453 19403 ft 427 kts 123°
2026-05-05 20:04 41.55810 27.53646 18937 ft 419 kts 122°
2026-05-05 20:05 41.54154 27.56723 17813 ft 402 kts 122°
2026-05-05 20:05 41.52524 27.59758 16590 ft 406 kts 122°
2026-05-05 20:05 41.50888 27.62806 16103 ft 404 kts 122°
2026-05-05 20:05 41.49246 27.65859 15525 ft 404 kts 123°
2026-05-05 20:06 41.47468 27.68780 15008 ft 406 kts 129°
2026-05-05 20:06 41.45528 27.71513 14683 ft 406 kts 130°
2026-05-05 20:06 41.43575 27.74227 14442 ft 403 kts 130°
2026-05-05 20:06 41.41643 27.76915 13993 ft 402 kts 130°
2026-05-05 20:07 41.39719 27.79606 13411 ft 400 kts 130°
2026-05-05 20:07 41.37837 27.82249 12825 ft 398 kts 130°
2026-05-05 20:07 41.35944 27.84915 12249 ft 395 kts 130°
2026-05-05 20:07 41.34066 27.87564 11655 ft 393 kts 130°
2026-05-05 20:08 41.32194 27.90205 11086 ft 391 kts 130°
2026-05-05 20:08 41.30344 27.92811 10845 ft 380 kts 130°
2026-05-05 20:08 41.28591 27.95271 10656 ft 349 kts 130°
2026-05-05 20:08 41.26995 27.97505 10518 ft 324 kts 129°
2026-05-05 20:09 41.25471 27.99648 10394 ft 314 kts 129°
2026-05-05 20:09 41.23994 28.01727 10262 ft 305 kts 129°
2026-05-05 20:09 41.22554 28.03753 10136 ft 296 kts 129°
2026-05-05 20:09 41.21163 28.05709 10013 ft 288 kts 129°
2026-05-05 20:10 41.19794 28.07633 9738 ft 285 kts 129°
2026-05-05 20:10 41.18433 28.09546 9421 ft 284 kts 129°
2026-05-05 20:10 41.17078 28.11450 9105 ft 284 kts 129°
2026-05-05 20:10 41.15723 28.13350 8778 ft 283 kts 129°
2026-05-05 20:11 41.14373 28.15239 8471 ft 282 kts 129°
2026-05-05 20:11 41.13481 28.16488 8260 ft 281 kts 129°
2026-05-05 20:11 41.11683 28.19001 7844 ft 281 kts 129°
2026-05-05 20:11 41.10793 28.20244 7632 ft 280 kts 129°
2026-05-05 20:12 41.09451 28.22120 7320 ft 280 kts 129°
2026-05-05 20:12 41.08108 28.23995 7001 ft 280 kts 130°
2026-05-05 20:12 41.06764 28.25869 6698 ft 280 kts 130°
2026-05-05 20:12 41.05423 28.27737 6366 ft 279 kts 130°
2026-05-05 20:13 41.04088 28.29597 6034 ft 279 kts 130°
2026-05-05 20:13 41.02751 28.31459 5712 ft 278 kts 130°
2026-05-05 20:13 41.01419 28.33311 5386 ft 278 kts 130°
2026-05-05 20:13 41.00098 28.35145 5221 ft 271 kts 130°
2026-05-05 20:14 40.98812 28.36929 5110 ft 263 kts 129°
2026-05-05 20:14 40.97584 28.38650 5026 ft 250 kts 125°
2026-05-05 20:14 40.96617 28.40551 5018 ft 250 kts 114°
2026-05-05 20:14 40.95778 28.42568 5008 ft 250 kts 113°
2026-05-05 20:15 40.94953 28.44578 4984 ft 247 kts 113°
2026-05-05 20:15 40.94128 28.46561 4992 ft 245 kts 114°
2026-05-05 20:15 40.93298 28.48528 4986 ft 244 kts 114°
2026-05-05 20:15 40.92466 28.50477 4991 ft 243 kts 114°
2026-05-05 20:16 40.91629 28.52423 5008 ft 244 kts 114°
2026-05-05 20:16 40.90783 28.54384 5007 ft 246 kts 114°
2026-05-05 20:16 40.89930 28.56358 5010 ft 248 kts 114°
2026-05-05 20:16 40.89315 28.58415 4983 ft 233 kts 87°
2026-05-05 20:17 40.89560 28.60462 5010 ft 226 kts 64°
2026-05-05 20:17 40.90086 28.62452 5013 ft 231 kts 65°
2026-05-05 20:17 40.90598 28.64457 4984 ft 229 kts 65°
2026-05-05 20:17 40.91105 28.66432 4994 ft 226 kts 65°
2026-05-05 20:18 40.91647 28.68359 4979 ft 220 kts 56°
2026-05-05 20:18 40.92712 28.69746 5024 ft 218 kts 27°
2026-05-05 20:18 40.94067 28.70713 5017 ft 224 kts 27°
2026-05-05 20:18 40.95421 28.71713 4993 ft 222 kts 27°
2026-05-05 20:19 40.96759 28.72699 4987 ft 217 kts 25°
2026-05-05 20:19 40.98159 28.73209 4994 ft 206 kts
2026-05-05 20:19 40.99580 28.73293 4998 ft 208 kts
2026-05-05 20:19 41.01021 28.73328 4995 ft 206 kts
2026-05-05 20:20 41.02443 28.73318 4942 ft 205 kts 359°
2026-05-05 20:20 41.03895 28.73291 4597 ft 208 kts 359°
2026-05-05 20:20 41.05334 28.73260 4302 ft 206 kts 359°
2026-05-05 20:20 41.06760 28.73226 4015 ft 203 kts 359°
2026-05-05 20:21 41.08163 28.73193 3761 ft 201 kts 359°
2026-05-05 20:21 41.09553 28.73162 3521 ft 197 kts 359°
2026-05-05 20:21 41.10921 28.73130 3265 ft 198 kts 359°
2026-05-05 20:21 41.12298 28.73098 2983 ft 198 kts 359°
2026-05-05 20:22 41.13673 28.73066 2730 ft 196 kts 359°
2026-05-05 20:22 41.15040 28.73036 2461 ft 197 kts 359°
2026-05-05 20:22 41.16410 28.73003 2189 ft 197 kts 359°
2026-05-05 20:22 41.17766 28.72971 1926 ft 192 kts 359°
2026-05-05 20:23 41.19062 28.72942 1703 ft 178 kts 359°
2026-05-05 20:23 41.20240 28.72915 1466 ft 160 kts 359°
2026-05-05 20:23 41.21279 28.72891 1266 ft 139 kts 359°
2026-05-05 20:23 41.22255 28.72868 1084 ft 142 kts 359°
2026-05-05 20:24 41.23242 28.72846 907 ft 142 kts 358°
2026-05-05 20:24 41.24230 28.72822 724 ft 142 kts 358°
2026-05-05 20:24 41.25206 28.72803 560 ft 138 kts 356°
2026-05-05 20:24 41.26159 28.72777 396 ft 135 kts 357°
2026-05-05 20:25 41.27064 28.72754 334 ft 116 kts 359°
2026-05-05 20:25 41.27748 28.72739 336 ft 81 kts 359°
2026-05-05 20:25 41.28177 28.72731 336 ft 48 kts 359°
2026-05-05 20:25 41.28497 28.72732 335 ft 32 kts 12°
2026-05-05 20:26 41.28648 28.72808 336 ft 15 kts 26°
2026-05-05 20:26 41.28717 28.72862 334 ft 9 kts 43°
2026-05-05 20:26 41.28713 28.72938 336 ft 10 kts 145°
2026-05-05 20:26 41.28639 28.72948 336 ft 14 kts 178°
2026-05-05 20:27 41.28521 28.72951 338 ft 18 kts 179°
2026-05-05 20:27 41.28396 28.72953 337 ft 18 kts 179°
2026-05-05 20:27 41.28271 28.72956 336 ft 18 kts 179°
2026-05-05 20:27 41.28146 28.72959 338 ft 18 kts 179°
2026-05-05 20:28 41.28021 28.72962 337 ft 18 kts 179°
2026-05-05 20:28 41.27896 28.72965 338 ft 18 kts 179°
2026-05-05 20:28 41.27771 28.72967 336 ft 18 kts 179°
2026-05-05 20:28 41.27648 28.72971 338 ft 18 kts 179°
2026-05-05 20:29 41.27521 28.72974 337 ft 18 kts 179°
2026-05-05 20:29 41.27398 28.72977 338 ft 18 kts 179°
2026-05-05 20:29 41.27271 28.72980 336 ft 18 kts 179°
2026-05-05 20:29 41.27148 28.72982 335 ft 18 kts 179°
2026-05-05 20:30 41.27023 28.72986 336 ft 18 kts 179°
2026-05-05 20:30 41.26906 28.72989 335 ft 11 kts 178°
2026-05-05 20:30 41.26868 28.73052 333 ft 10 kts 91°
2026-05-05 20:30 41.26868 28.73207 335 ft 19 kts 89°
2026-05-05 20:31 41.26870 28.73378 335 ft 16 kts 89°
2026-05-05 20:31 41.26871 28.73488 335 ft 8 kts 95°
2026-05-05 20:31 41.26830 28.73526 336 ft 8 kts 174°
2026-05-05 20:31 41.26805 28.73527 335 ft 3 kts 177°
2026-05-05 20:32 41.26789 28.73528 338 ft 2 kts 178°
2026-05-05 20:32 41.26788 28.73528 338 ft 0 kts 178°